Wetbulb
59.95 59.72 59.82 59.68 59.92 60.08 60.44 60.65 60.74 60.96 60.89 60.65 60.52 60.65 60.90 60.92 60.61 63.30 57.12 64.57 66.25 72.78 70.62 64.91 65.85 64.76 64.57 63.40 65.05 66.65 62.53 57.40 58.62 59.29 63.15 67.45 65.64 69.29 70.27 67.84 69.25 69.14 68.88 70.67 72.55
59.73 59.69 59.40 59.49 59.70 59.96 60.15 60.39 60.45 60.61 60.39 60.39 60.25 60.47 61.12 61.15 62.35 58.31 65.90 71.29 71.40 74.14 62.96 62.92 62.97 64.01 63.23 62.60 64.86 63.57 60.19 59.01 63.33 64.25 63.63 66.30 66.82 67.18 66.76 66.80 67.77 69.04 71.18 72.53 71.83
59.66 59.36 59.31 59.31 59.40 59.62 59.89 60.11 60.06 60.04 59.88 59.88 60.08 60.63 61.29 62.36 61.63 58.62 73.25 70.86 73.72 71.02 62.68 63.00 64.78 63.93 61.79 62.83 62.45 62.80 59.48 61.44 64.07 66.08 66.49 66.74 66.56 67.72 65.90 64.17 67.48 68.06 68.78 70.60 70.64
59.45 59.25 59.16 59.25 59.39 59.41 59.43 59.75 59.51 59.26 59.26 59.55 60.15 60.74 61.86 64.02 54.13 64.64 75.19 72.55 72.69 68.52 62.19 64.65 64.20 62.13 61.48 60.04 62.00 59.19 62.22 63.75 66.35 67.73 66.66 66.12 67.30 65.06 66.51 66.23 70.02 70.55 70.62 70.70 70.16
59.03 58.94 58.87 58.74 58.99 59.08 59.11 58.93 58.72 58.49 58.58 59.27 60.15 61.01 63.60 61.55 61.25 68.77 74.00 71.97 65.52 62.61 62.93 64.29 62.44 62.27 60.15 60.94 61.23 59.65 62.86 65.81 67.41 67.52 67.63 68.07 65.59 64.97 65.95 68.60 70.59 70.90 70.69 70.62 70.63
59.26 59.19 59.05 58.99 58.84 58.77 58.88 58.45 57.34 56.99 58.27 59.56 60.27 61.18 62.81 57.69 66.31 67.19 63.33 65.23 63.73 62.84 64.86 64.40 62.26 62.73 61.62 61.00 61.75 63.47 65.41 66.54 67.20 67.56 67.83 66.07 65.95 65.76 67.16 69.24 69.13 69.83 70.13 70.98 71.19
59.34 59.08 59.04 58.63 58.33 58.12 57.47 56.34 56.28 57.26 59.40 60.48 60.82 63.57 58.69 60.13 65.83 65.51 63.59 63.33 62.88 63.45 64.73 64.00 63.63 62.56 62.60 61.47 65.23 65.70 64.09 65.88 66.47 67.23 66.59 67.60 64.21 64.24 68.15 68.97 68.15 68.90 69.69 70.43 71.33
58.65 58.27 57.91 57.80 57.27 56.75 55.85 55.22 55.85 58.10 60.52 59.92 61.46 64.06 57.80 61.12 64.65 63.58 62.09 61.42 62.08 63.15 63.35 63.61 63.91 63.40 62.65 64.35 62.62 61.02 62.09 58.98 64.67 66.34 67.06 65.37 61.20 66.41 68.79 68.02 67.58 68.45 69.48 70.13 71.10
57.73 57.61 57.31 57.17 56.53 55.51 54.41 54.69 56.57 59.79 61.25 61.55 64.80 61.90 56.33 61.68 61.06 64.20 64.05 62.59 62.29 62.97 63.43 62.24 64.78 62.04 61.96 59.79 57.78 58.07 55.62 55.76 60.28 66.02 65.68 64.32 61.60 67.09 69.58 68.43 67.44 68.28 69.12 69.68 70.76
57.54 56.98 57.00 56.59 55.82 54.76 53.98 54.92 58.23 59.48 62.41 64.62 63.67 59.02 57.16 58.37 61.26 63.45 64.43 62.78 63.92 63.83 62.84 63.04 63.68 60.45 60.22 57.85 53.55 54.25 54.62 55.46 55.82 62.55 63.75 62.26 61.53 66.76 68.32 68.23 68.09 68.52 69.18 69.50 69.61
57.16 56.93 56.54 56.22 55.02 54.09 56.10 60.84 60.34 60.68 62.31 59.11 57.17 54.74 57.12 61.38 62.60 60.97 63.07 62.32 64.13 64.42 60.42 62.08 59.39 57.22 57.39 58.15 58.06 56.53 55.36 54.84 58.25 62.36 61.58 61.06 61.32 65.23 67.49 67.90 67.77 68.31 68.35 68.94 69.22
56.96 56.65 56.03 55.11 54.41 53.74 57.48 59.61 59.23 59.85 56.14 60.31 60.23 60.30 60.93 61.81 57.75 59.26 62.39 61.48 62.19 60.11 62.18 59.89 57.21 60.06 58.12 57.28 56.46 55.94 55.11 55.37 59.96 62.15 61.78 61.21 60.54 64.38 66.09 66.92 68.03 68.38 67.46 68.07 69.25
56.86 56.46 55.71 54.08 53.70 57.49 57.88 60.07 62.33 61.90 56.91 56.79 58.93 58.24 58.75 60.84 57.50 57.25 60.44 61.10 60.61 60.30 60.01 57.31 58.61 59.64 57.32 56.70 56.13 56.16 53.83 54.58 56.64 61.15 61.75 60.41 59.25 61.83 64.11 65.64 67.05 67.52 67.11 68.02 67.89
56.68 56.27 54.96 52.99 55.13 58.59 59.81 61.72 62.36 61.74 53.29 53.15 54.61 57.47 59.40 59.77 56.26 60.28 60.53 59.77 58.38 59.09 60.12 59.29 60.11 58.33 57.99 56.76 56.74 54.23 54.48 53.65 57.82 58.28 53.90 60.50 51.01 60.54 62.39 63.64 65.54 66.69 66.98 67.40 67.37
56.27 55.55 53.87 52.78 56.88 57.98 60.13 61.64 62.77 61.11 43.87 54.58 54.93 61.45 59.52 57.35 57.21 56.76 60.56 58.24 55.94 57.35 58.59 57.04 58.03 56.81 56.42 57.23 56.66 54.26 56.84 56.67 58.59 57.96 56.02 56.94 53.27 58.27 61.43 61.77 64.74 66.03 67.46 68.06 68.26
55.34 54.59 53.56 55.58 57.45 59.91 60.56 61.60 61.34 51.28 43.15 51.84 54.94 54.80 55.42 56.76 55.59 56.98 56.78 58.73 57.99 55.76 57.08 57.42 58.74 57.85 57.78 57.02 56.03 57.00 57.27 58.20 58.53 55.41 50.09 53.96 53.14 52.55 58.74 62.04 62.80 63.70 66.72 67.79 67.19
54.25 52.92 52.65 57.98 59.10 60.62 61.39 60.16 51.19 46.01 54.40 51.67 51.32 54.29 53.71 53.48 53.47 54.92 54.09 53.35 51.74 49.50 50.06 53.04 54.36 56.83 56.72 54.69 55.29 55.49 55.61 50.79 49.27 49.34 48.42 55.66 52.59 53.69 61.53 64.62 63.78 64.64 66.39 66.59 69.21
52.69 51.20 54.80 58.27 61.48 60.06 60.72 55.71 46.44 47.93 51.59 54.28 52.78 53.20 51.51 53.52 53.30 53.15 53.18 51.74 54.10 52.75 50.52 48.61 47.21 53.88 56.06 55.63 55.41 54.26 54.50 49.95 44.88 46.15 48.92 55.95 49.27 56.85 62.10 65.67 66.11 66.62 68.42 68.54 69.07
51.74 60.47 61.59 63.07 61.81 60.73 57.69 49.99 49.65 50.89 53.26 50.89 52.88 50.85 51.20 52.57 52.33 52.84 52.37 51.86 53.35 53.87 49.82 49.20 50.12 56.15 55.45 56.62 56.36 53.81 51.24 54.90 50.69 50.82 48.16 51.97 54.94 60.47 63.43 64.30 66.58 66.89 67.00 67.93 68.91
57.79 62.08 61.28 61.97 61.78 59.86 55.13 48.43 51.09 53.59 53.57 51.67 51.06 53.23 50.35 51.18 50.87 51.75 51.91 53.71 52.79 54.33 55.80 53.12 51.42 54.62 55.92 56.72 56.07 54.92 56.63 50.55 51.35 46.28 45.73 50.92 52.74 54.44 60.27 62.52 65.68 66.42 67.17 68.30 69.63
58.49 60.18 60.25 62.05 61.02 57.05 51.22 52.07 52.57 54.39 53.32 50.86 51.57 52.55 53.18 50.95 51.65 51.21 51.74 52.77 54.30 53.92 55.78 54.68 53.95 52.58 56.31 55.29 54.12 54.44 53.28 54.25 54.39 52.18 48.32 47.58 52.69 62.00 61.46 63.62 65.64 66.62 67.77 68.80 68.68
59.77 58.06 62.52 62.87 54.48 56.29 51.99 52.30 49.13 52.74 54.50 52.69 52.75 52.61 53.12 52.73 51.54 51.94 51.31 53.19 55.33 55.41 52.51 55.29 54.47 51.51 53.11 58.43 59.72 58.02 55.79 54.95 50.59 51.78 53.06 52.29 51.50 62.16 63.14 63.93 67.01 67.30 69.00 69.72 67.44
60.34 60.77 62.94 61.43 50.96 51.10 53.87 52.96 53.96 53.48 53.68 52.38 53.59 55.17 55.61 53.82 51.47 52.51 53.28 55.10 54.63 54.82 54.27 55.16 52.64 50.12 51.56 56.19 58.86 57.11 57.15 57.66 56.50 55.34 52.23 49.86 53.05 62.92 63.92 64.44 67.45 67.34 68.93 68.05 66.35
60.36 57.44 58.25 59.01 59.41 55.60 54.65 53.97 54.09 57.89 56.33 56.29 55.92 56.58 56.12 56.35 55.88 53.73 52.91 56.70 56.90 55.26 58.82 59.51 53.51 52.62 50.23 52.33 55.72 55.26 57.15 58.00 56.10 52.19 54.09 53.19 55.05 58.24 62.08 63.67 66.62 67.52 68.41 66.91 66.14
60.60 58.17 57.50 56.11 56.53 57.18 57.44 57.19 54.76 54.13 58.38 58.81 56.69 56.43 56.85 55.96 56.74 56.47 55.48 58.81 59.87 59.41 56.65 54.84 51.58 53.51 53.81 54.69 54.60 54.15 54.21 56.45 56.21 55.54 53.48 54.86 55.57 58.01 60.98 63.74 66.24 68.27 68.03 66.55 65.51
55.74 55.45 60.04 58.06 57.42 57.83 53.29 56.83 55.25 56.43 57.35 57.12 56.41 56.62 56.48 57.71 58.07 57.37 58.60 59.11 58.49 59.51 59.05 55.54 54.11 55.93 52.42 55.19 55.30 53.98 55.04 55.90 57.09 57.09 57.12 56.86 56.70 61.34 63.13 65.49 66.19 67.62 67.34 66.50 65.93
60.12 59.44 56.92 53.25 56.80 57.37 58.88 56.90 56.00 57.86 58.98 59.14 58.19 58.16 57.36 58.80 61.22 62.38 62.38 62.06 61.56 59.24 58.30 56.97 56.17 55.75 51.61 55.71 55.12 52.47 54.55 55.85 57.32 58.75 57.61 55.09 59.17 61.82 62.26 63.90 65.53 67.10 67.54 67.01 66.79
MSLP
1017.45 1017.05 1016.62 1016.20 1015.83 1015.39 1015.01 1014.62 1014.21 1013.83 1013.52 1013.17 1012.86 1012.58 1012.28 1011.94 1011.19 1010.59 1008.39 1007.24 1007.02 1007.19 1007.47 1006.51 1006.17 1005.59 1005.34 1004.56 1004.50 1004.44 1003.23 1003.10 1003.54 1003.92 1005.24 1006.03 1006.20 1007.31 1007.70 1008.05 1009.02 1009.69 1008.99 1010.33 1012.19
1017.52 1017.09 1016.64 1016.20 1015.79 1015.34 1014.91 1014.53 1014.12 1013.76 1013.41 1013.08 1012.74 1012.47 1012.20 1011.92 1010.40 1008.41 1007.21 1007.24 1007.30 1007.41 1006.62 1005.86 1005.15 1004.98 1004.22 1004.00 1004.07 1003.73 1002.91 1003.46 1004.06 1004.38 1005.01 1005.92 1006.41 1007.20 1007.85 1008.40 1009.35 1010.01 1010.65 1011.57 1012.37
1017.47 1017.03 1016.62 1016.16 1015.67 1015.27 1014.81 1014.44 1014.03 1013.62 1013.23 1012.97 1012.63 1012.31 1012.06 1011.64 1009.28 1006.61 1007.02 1007.30 1007.47 1007.35 1006.39 1005.82 1005.24 1004.54 1003.66 1003.61 1003.70 1003.85 1003.50 1004.05 1004.49 1004.64 1005.28 1006.11 1006.64 1007.32 1007.54 1007.81 1008.76 1009.74 1010.80 1011.67 1012.25
1017.45 1016.97 1016.54 1016.06 1015.56 1015.13 1014.73 1014.31 1013.90 1013.44 1013.07 1012.77 1012.40 1012.09 1011.86 1010.70 1007.48 1006.43 1006.98 1007.31 1007.51 1006.92 1006.16 1005.32 1004.62 1003.89 1003.16 1003.00 1003.71 1003.52 1004.07 1004.36 1004.77 1005.25 1005.59 1006.24 1006.90 1007.32 1007.92 1008.47 1008.96 1009.80 1010.71 1011.49 1011.96
1017.40 1016.91 1016.43 1015.94 1015.40 1014.96 1014.56 1014.14 1013.73 1013.22 1012.86 1012.49 1012.13 1011.88 1011.26 1008.65 1006.28 1006.22 1006.88 1007.25 1007.04 1006.58 1005.59 1004.80 1004.03 1003.78 1002.97 1003.37 1003.68 1003.55 1004.21 1004.69 1005.12 1005.46 1005.91 1006.73 1007.09 1007.60 1008.55 1009.21 1009.68 1010.14 1010.80 1011.20 1011.51
1017.31 1016.80 1016.28 1015.79 1015.23 1014.73 1014.32 1013.93 1013.54 1013.05 1012.57 1012.16 1011.88 1011.77 1009.95 1006.75 1006.29 1006.29 1006.33 1006.71 1006.07 1005.87 1005.19 1004.74 1004.38 1004.18 1003.59 1003.57 1003.49 1004.07 1004.43 1004.97 1005.45 1005.92 1006.36 1006.84 1007.44 1007.67 1009.16 1009.61 1010.05 1010.53 1010.71 1010.98 1011.32
1017.21 1016.71 1016.19 1015.62 1015.08 1014.57 1014.12 1013.76 1013.32 1012.72 1012.19 1011.82 1011.68 1011.05 1008.50 1006.53 1006.27 1006.30 1006.39 1006.07 1005.97 1005.60 1004.75 1004.96 1004.79 1003.98 1003.83 1003.47 1004.28 1004.20 1004.72 1005.28 1005.74 1006.17 1006.61 1006.94 1007.32 1007.71 1008.93 1009.42 1009.92 1010.18 1010.38 1010.65 1011.01
1017.13 1016.62 1016.06 1015.46 1014.89 1014.37 1013.84 1013.43 1012.94 1012.31 1011.74 1011.57 1011.52 1010.22 1006.66 1006.33 1006.38 1006.30 1006.20 1006.00 1006.05 1005.67 1005.30 1005.28 1004.91 1004.09 1003.62 1004.05 1003.99 1003.75 1004.07 1004.23 1005.65 1006.17 1006.97 1007.08 1006.90 1008.33 1008.92 1009.19 1009.64 1010.09 1010.50 1010.87 1011.04
1017.08 1016.55 1015.96 1015.34 1014.74 1014.11 1013.53 1012.98 1012.38 1011.92 1011.62 1011.39 1010.65 1008.84 1006.02 1006.73 1006.00 1005.47 1005.67 1005.22 1005.39 1005.37 1005.34 1005.44 1004.51 1003.79 1003.67 1003.13 1003.07 1003.49 1003.02 1004.19 1005.22 1005.91 1006.43 1006.77 1006.77 1008.14 1008.81 1009.08 1009.51 1009.97 1010.43 1010.84 1011.18
1016.98 1016.45 1015.82 1015.22 1014.59 1013.90 1013.10 1012.34 1011.76 1011.56 1011.38 1010.57 1009.65 1008.19 1006.10 1005.33 1005.23 1005.35 1005.55 1005.26 1004.85 1004.86 1004.76 1004.52 1003.71 1003.04 1002.81 1002.59 1002.11 1003.14 1003.58 1004.28 1004.55 1005.52 1006.15 1006.22 1006.51 1007.75 1008.50 1008.99 1009.30 1009.81 1010.11 1010.51 1010.94
1016.79 1016.26 1015.60 1014.96 1014.31 1013.74 1012.73 1011.06 1011.16 1010.24 1009.15 1007.03 1006.41 1006.01 1005.47 1005.31 1005.55 1005.11 1005.08 1004.98 1004.62 1004.35 1003.77 1004.04 1003.20 1002.42 1003.19 1003.50 1003.61 1004.17 1004.14 1004.28 1004.91 1005.81 1005.95 1005.82 1006.26 1007.14 1008.14 1008.55 1008.94 1009.58 1010.08 1010.66 1010.96
1016.70 1016.09 1015.39 1014.66 1013.97 1013.31 1012.71 1009.72 1009.51 1009.42 1007.37 1006.33 1006.23 1006.05 1005.68 1005.49 1004.67 1004.66 1004.92 1004.32 1004.15 1003.78 1003.68 1004.06 1003.16 1003.58 1004.33 1004.28 1004.05 1003.97 1003.79 1004.16 1005.38 1005.95 1006.07 1005.83 1005.92 1006.72 1007.78 1008.06 1008.43 1009.39 1010.32 1010.73 1010.67
1016.51 1015.94 1015.21 1014.33 1013.45 1012.57 1011.20 1009.57 1009.49 1009.11 1007.14 1005.58 1005.31 1004.93 1004.81 1005.27 1003.98 1003.99 1004.39 1003.86 1003.63 1003.52 1003.74 1003.20 1002.84 1003.92 1004.34 1003.93 1003.71 1003.25 1003.58 1004.11 1004.65 1005.68 1005.87 1005.66 1005.17 1006.13 1007.36 1008.16 1008.73 1009.51 1010.08 1010.25 1010.18
1016.30 1015.77 1015.14 1014.21 1013.34 1011.59 1009.92 1009.85 1009.62 1009.35 1006.37 1004.78 1004.52 1004.02 1004.58 1004.10 1003.81 1003.59 1003.90 1003.86 1003.71 1003.18 1003.45 1003.23 1003.33 1003.93 1004.08 1003.68 1003.83 1003.06 1004.13 1004.36 1004.68 1004.81 1003.92 1005.29 1003.86 1004.81 1006.39 1007.60 1008.37 1009.03 1009.73 1009.89 1010.27
1016.08 1015.56 1015.14 1015.12 1013.07 1010.78 1010.16 1009.94 1009.52 1008.82 1004.91 1004.16 1003.86 1004.17 1003.38 1003.38 1002.89 1003.94 1004.06 1003.93 1003.26 1003.43 1003.57 1003.13 1003.17 1003.81 1003.82 1003.44 1003.82 1003.63 1004.31 1004.09 1004.36 1004.09 1004.23 1004.27 1004.41 1004.74 1006.26 1006.86 1007.98 1009.07 1009.41 1009.95 1010.39
1015.64 1015.17 1014.72 1013.64 1012.91 1010.65 1010.39 1009.96 1009.25 1007.00 1003.62 1003.25 1003.18 1003.28 1003.19 1002.76 1002.82 1003.53 1004.04 1004.10 1003.51 1003.49 1003.79 1003.22 1003.34 1003.46 1003.55 1003.62 1004.01 1004.40 1004.36 1004.25 1004.07 1003.65 1003.06 1003.18 1004.18 1003.55 1004.45 1005.97 1008.31 1009.30 1009.74 1010.28 1010.76
1014.93 1014.39 1014.35 1012.57 1010.52 1010.79 1010.31 1009.07 1006.95 1004.52 1003.57 1002.82 1002.39 1002.57 1002.21 1002.23 1002.52 1002.91 1003.21 1003.38 1003.21 1003.28 1003.05 1003.27 1003.44 1003.56 1003.88 1003.61 1003.99 1004.19 1003.42 1002.32 1002.34 1002.27 1002.23 1003.51 1003.93 1003.41 1005.31 1006.72 1008.09 1008.97 1009.81 1010.34 1011.04
1014.24 1013.62 1012.91 1011.76 1011.19 1010.98 1009.49 1007.67 1005.20 1003.74 1002.67 1002.62 1002.07 1002.04 1001.70 1001.71 1002.06 1002.43 1002.48 1002.43 1002.80 1002.58 1001.91 1002.46 1002.64 1002.75 1003.26 1003.01 1002.46 1003.02 1002.33 1001.46 1001.27 1001.40 1001.75 1003.82 1003.16 1003.78 1005.73 1007.24 1008.32 1009.09 1009.84 1010.45 1011.00
1013.30 1011.68 1011.09 1010.67 1010.93 1010.84 1008.52 1005.83 1003.81 1003.46 1003.16 1002.48 1002.17 1001.59 1001.43 1001.51 1001.64 1002.08 1002.06 1001.85 1002.27 1002.61 1002.01 1001.77 1001.29 1001.98 1002.81 1002.67 1002.76 1002.40 1002.57 1001.77 1001.49 1001.86 1002.15 1002.08 1002.83 1003.29 1006.05 1007.14 1008.26 1008.95 1009.98 1010.54 1011.02
1012.60 1010.49 1009.89 1010.41 1010.58 1009.65 1007.35 1004.83 1004.30 1004.23 1003.74 1002.95 1001.40 1001.12 1000.77 1001.18 1001.59 1001.64 1001.55 1001.59 1001.71 1002.33 1002.04 1001.56 1001.19 1001.94 1002.92 1003.01 1003.22 1002.60 1002.67 1001.82 1001.48 1001.34 1001.44 1001.39 1002.43 1002.84 1005.04 1006.28 1007.70 1008.56 1009.36 1010.44 1011.20
1012.07 1009.18 1009.95 1010.20 1010.04 1008.09 1005.77 1004.50 1004.53 1004.12 1004.16 1003.12 1001.85 1001.07 1000.40 1000.47 1000.94 1000.98 1000.92 1001.39 1001.43 1001.92 1002.31 1001.89 1001.14 1002.10 1002.35 1001.86 1001.32 1002.43 1002.05 1001.86 1001.16 1001.55 1001.14 1001.01 1001.29 1003.21 1004.10 1005.19 1006.84 1008.05 1009.43 1010.19 1011.22
1011.14 1008.24 1009.38 1009.54 1008.06 1006.76 1005.25 1005.05 1005.47 1004.16 1003.89 1003.41 1002.74 1001.75 1000.73 1000.37 1000.48 1000.47 1000.49 1000.65 1001.24 1001.52 1002.23 1002.25 1000.94 1000.89 1001.29 1002.10 1002.62 1001.98 1001.17 1000.88 1000.73 1000.85 1001.41 1001.94 1002.16 1003.38 1004.20 1004.73 1005.98 1007.74 1009.33 1010.27 1011.46
1010.48 1008.87 1008.95 1008.61 1006.43 1005.86 1005.64 1005.22 1004.94 1004.13 1003.47 1002.89 1002.25 1001.73 1001.16 1000.56 1000.34 1000.34 1000.43 1001.26 1001.75 1001.70 1001.53 1001.95 1001.44 1000.86 1001.40 1002.38 1002.56 1001.79 1001.45 1001.21 1000.63 1000.65 1000.66 1001.48 1001.84 1003.62 1004.47 1005.04 1005.79 1007.27 1008.94 1010.36 1011.40
1010.94 1008.25 1008.01 1007.74 1007.17 1006.03 1005.40 1004.67 1004.38 1004.18 1003.83 1003.36 1002.41 1001.84 1001.23 1000.62 1000.33 1000.13 1000.47 1001.70 1002.05 1001.86 1002.27 1002.06 1000.85 1000.60 1000.14 1000.41 1000.48 1001.13 1001.31 1001.46 1000.94 1000.17 1000.31 1001.05 1001.66 1002.23 1003.96 1004.92 1006.02 1007.20 1008.86 1010.05 1011.24
1011.06 1009.36 1009.42 1006.98 1006.63 1006.27 1006.02 1005.42 1004.58 1003.90 1003.90 1003.38 1002.29 1001.80 1000.93 1000.09 1000.03 999.94 1000.16 1001.49 1002.26 1002.68 1002.60 1001.73 1000.75 1000.84 1000.45 1001.37 1001.35 1001.00 1000.91 1001.25 1001.20 1000.83 1001.13 1001.00 1001.90 1002.31 1003.43 1004.55 1005.73 1006.98 1008.52 1009.71 1010.85
1011.69 1010.82 1009.73 1008.28 1007.65 1006.84 1006.11 1005.14 1004.99 1004.47 1004.26 1002.78 1002.62 1001.93 1001.33 1000.30 999.57 999.32 999.73 1000.32 1000.85 1002.38 1002.10 1001.59 1001.10 1001.20 1000.97 1001.64 1001.75 1001.20 1000.93 1000.91 1001.11 1001.17 1001.57 1001.63 1001.79 1002.72 1003.91 1004.50 1005.37 1006.52 1008.01 1009.16 1010.21
1013.04 1012.37 1011.25 1008.80 1007.57 1006.81 1005.76 1005.81 1005.41 1005.23 1004.31 1004.06 1003.66 1002.86 1001.52 1001.11 1000.87 999.24 999.55 999.75 1000.30 1001.04 1001.23 1001.30 1001.00 1001.48 1000.77 1001.47 1001.57 1001.15 1000.42 1000.54 1000.59 1001.09 1001.24 1001.24 1001.80 1002.90 1003.88 1004.75 1005.16 1006.02 1007.35 1008.54 1009.62
Wind_Speed
16 16 16 17 17 17 16 16 16 16 15 15 14 13 12 12 15 7 7 2 2 5 6 3 6 4 5 4 3 1 2 8 10 7 7 6 4 6 3 11 9 5 8 18 18
16 16 16 17 16 17 16 16 16 16 16 15 14 12 11 9 8 8 4 1 5 6 7 6 5 3 5 3 2 4 4 10 6 7 9 6 8 6 5 8 9 13 17 18 18
17 16 17 17 17 17 17 16 16 17 16 15 13 11 10 11 7 6 4 5 5 7 6 4 4 6 4 3 3 3 6 4 6 10 9 9 8 5 4 5 8 15 18 17 17
17 17 17 18 18 18 17 17 17 17 16 15 13 11 9 7 5 5 4 8 8 9 7 4 5 5 3 3 2 2 5 4 8 8 9 10 7 11 13 9 11 18 18 16 15
17 17 18 18 19 19 18 17 17 17 16 14 12 10 8 8 6 6 8 9 10 9 6 2 2 2 2 3 5 1 4 5 9 9 11 9 8 11 13 13 14 18 16 15 13
16 17 17 18 19 19 18 17 18 17 16 13 11 9 8 5 3 2 12 10 8 8 2 2 5 4 4 2 5 5 9 11 9 10 9 11 11 4 12 13 15 15 14 13 12
17 17 18 19 20 21 20 20 19 17 14 10 8 6 7 8 3 5 11 8 4 6 1 3 3 6 1 7 6 10 12 10 7 8 6 10 6 12 14 15 15 14 13 13 12
19 20 21 21 22 22 22 21 19 15 8 5 6 6 1 4 2 4 9 8 6 5 3 2 3 1 3 6 7 6 8 7 7 8 7 7 10 11 12 13 14 13 11 10 11
19 20 21 22 22 22 22 22 18 9 3 5 7 6 7 4 7 5 9 8 9 6 3 3 5 2 8 12 8 7 3 1 7 7 5 8 6 12 12 11 11 11 10 9 9
19 21 21 22 22 22 23 20 2 6 6 6 5 7 5 5 4 5 8 7 8 9 7 6 5 7 7 10 5 5 3 3 6 7 8 7 3 10 12 11 10 9 8 7 6
21 20 22 22 23 19 15 6 7 8 8 7 4 3 5 4 3 8 9 11 9 11 12 5 10 6 8 7 7 2 3 6 1 2 7 7 4 9 10 11 11 9 7 6 7
20 20 23 25 22 19 7 6 6 7 7 8 9 6 5 2 8 11 9 13 13 14 12 8 15 9 2 1 3 3 8 3 2 3 7 2 7 7 9 10 10 10 8 8 7
19 18 20 26 25 8 6 2 3 6 8 6 6 7 8 10 9 15 16 12 16 18 15 19 9 11 2 5 7 5 7 0 5 5 5 4 13 11 8 7 7 8 7 7 6
19 18 18 27 8 5 2 3 7 6 7 11 9 8 9 9 10 9 16 13 8 16 18 17 10 8 9 11 6 10 5 4 5 9 1 5 6 12 13 9 10 11 10 8 8
19 18 15 8 11 5 6 6 5 6 7 7 8 5 13 13 17 11 9 10 16 15 9 16 12 12 15 14 3 6 5 3 6 7 7 11 8 9 10 10 9 7 8 7 5
21 19 16 5 5 6 6 6 6 9 4 7 8 13 16 14 7 13 13 8 5 10 14 19 2 8 14 4 5 4 3 5 7 5 10 6 7 8 6 8 10 8 10 9 8
23 21 8 3 2 4 5 6 8 8 4 8 11 16 19 15 11 17 16 17 12 13 12 14 14 11 9 12 6 9 12 9 8 8 5 5 7 8 12 13 12 10 11 9 11
25 20 9 5 3 6 6 8 7 3 2 4 5 16 17 17 14 10 14 16 17 14 10 12 18 19 14 17 11 15 16 11 5 8 4 5 7 8 11 12 11 8 7 7 10
26 4 4 3 4 5 8 10 2 2 3 1 8 14 16 14 8 12 16 15 16 14 11 14 11 18 8 7 10 10 10 7 12 6 9 4 4 14 14 14 12 12 12 13 12
6 3 4 2 6 7 9 11 2 2 5 4 9 14 15 17 13 13 13 13 13 18 14 7 10 12 9 9 4 9 4 8 9 5 7 5 4 5 12 15 15 15 15 14 13
5 5 5 4 5 7 10 7 5 6 5 5 2 8 10 17 18 15 12 5 17 17 16 9 11 11 10 11 5 7 10 9 7 6 9 8 4 6 5 13 18 16 15 16 16
5 4 4 4 7 3 9 4 2 9 6 8 6 10 8 12 16 13 11 4 14 16 16 16 9 12 13 7 3 8 10 12 10 9 5 8 7 5 4 7 17 16 16 15 14
4 2 4 5 5 7 4 9 6 9 8 5 6 5 5 9 11 13 11 8 11 15 15 10 9 10 10 9 5 9 10 11 8 8 6 8 6 4 6 7 14 18 17 16 15
5 4 5 5 2 6 3 6 7 6 10 8 9 6 7 8 10 12 9 7 8 11 7 10 15 15 12 10 4 7 8 10 12 9 2 7 8 1 7 9 14 17 18 18 16
2 4 5 3 6 5 4 3 6 5 5 6 7 12 10 8 11 8 12 10 7 6 7 10 12 14 16 2 4 10 7 10 12 11 8 10 9 8 2 10 15 16 18 18 17
6 5 1 4 4 6 5 2 5 3 4 6 9 4 9 9 8 13 13 11 8 10 12 13 6 8 13 7 10 11 10 12 13 9 9 11 11 4 2 7 15 17 18 18 17
2 1 5 4 3 5 1 4 4 8 3 6 8 9 8 1 4 3 3 6 8 11 12 12 7 7 13 8 9 11 15 15 14 10 10 11 6 4 4 8 14 18 19 19 18
Wind_Direction
346 345 342 340 339 337 336 334 333 331 331 330 331 330 326 327 297 223 230 82 167 141 208 197 213 230 245 206 244 303 212 71 64 56 108 136 95 63 93 126 66 40 76 120 142
345 343 341 337 335 333 333 332 329 328 327 326 326 325 323 326 273 239 98 223 236 175 214 222 229 224 204 193 163 288 49 46 18 82 104 105 58 97 122 128 112 104 103 126 145
344 342 340 335 332 332 329 328 327 325 323 322 320 316 315 302 247 98 53 199 190 221 260 255 273 236 209 211 134 100 22 29 99 96 107 106 87 80 149 118 133 138 132 144 154
342 339 337 333 329 328 326 325 324 321 319 317 313 308 307 243 159 87 325 185 212 249 244 246 216 210 203 155 109 209 36 68 115 129 124 88 102 74 59 68 114 140 142 149 163
341 336 333 331 328 326 325 323 324 320 315 310 303 302 267 214 79 59 131 148 194 226 248 306 73 246 120 112 158 344 91 94 135 135 107 119 83 97 88 98 122 137 153 154 163
338 334 331 331 329 327 325 324 325 318 311 301 291 291 252 179 28 61 153 168 204 224 199 312 27 348 78 74 7 92 100 105 133 123 139 118 123 135 114 128 132 149 160 167 172
336 335 334 334 332 329 326 322 319 313 305 286 273 271 256 72 69 115 170 190 207 250 229 52 344 275 179 124 120 131 117 118 126 147 146 141 153 108 143 146 153 165 171 171 183
340 339 338 336 333 328 323 318 312 308 311 253 247 256 359 113 95 193 184 191 212 231 305 342 307 18 319 127 150 168 183 180 153 182 151 239 108 141 159 165 164 171 177 188 192
341 339 337 335 331 327 321 311 299 288 280 215 235 266 139 131 217 172 194 197 182 189 189 237 245 26 167 200 176 204 137 279 165 200 163 231 95 160 177 183 170 178 188 200 209
338 337 334 335 329 325 319 299 307 244 208 229 263 241 184 156 126 155 175 211 181 165 171 212 217 184 186 226 170 114 222 223 272 174 222 215 202 167 186 193 178 199 199 225 243
336 334 335 331 326 323 317 215 207 182 209 286 89 360 128 144 196 197 175 183 186 208 214 190 238 192 48 15 49 4 304 292 129 115 248 245 273 183 179 207 200 207 205 211 232
335 334 332 330 323 318 274 276 42 358 285 213 247 260 245 303 174 178 189 194 192 203 216 190 239 108 106 68 275 261 270 162 112 234 249 178 238 198 185 210 205 193 202 235 236
331 330 331 329 320 274 310 1 31 332 255 165 206 227 192 200 203 172 197 208 201 212 205 229 211 127 225 231 279 231 339 94 320 167 226 245 234 200 173 204 197 180 203 220 224
331 329 335 329 285 351 201 123 305 281 258 146 194 188 179 217 196 163 207 197 211 219 213 229 172 198 250 268 278 278 22 277 174 211 259 223 322 181 152 179 195 176 198 197 175
326 325 328 329 319 242 56 313 297 224 243 126 145 99 156 198 130 179 179 204 223 215 217 218 218 223 243 257 256 17 331 239 192 231 265 173 260 103 153 189 161 163 168 166 173
321 321 326 194 220 288 299 302 226 229 211 142 145 175 174 197 177 140 182 230 288 216 223 248 180 238 250 220 214 126 175 166 196 250 245 92 283 305 110 152 132 166 158 153 146
318 315 293 262 31 336 290 212 221 254 134 149 176 175 190 181 157 172 183 192 190 198 201 211 215 209 219 207 191 212 206 203 217 205 277 76 266 294 120 132 141 134 169 186 169
320 313 166 257 285 302 223 220 241 21 231 119 202 183 199 180 187 190 192 200 213 223 194 205 196 203 192 232 212 206 241 277 242 272 7 155 271 71 113 142 152 129 129 152 155
309 175 198 147 220 230 227 218 242 198 28 276 169 192 196 184 217 201 208 210 189 219 232 196 201 162 188 197 238 168 228 294 287 236 269 287 247 191 140 152 158 147 143 147 148
307 250 52 6 182 226 228 238 232 279 329 260 218 201 191 191 202 200 184 213 206 197 240 210 155 171 148 165 163 280 17 216 210 264 258 161 256 333 159 167 165 163 147 146 144
245 225 102 126 243 216 223 218 249 235 288 299 259 201 232 183 199 190 189 182 204 188 209 235 247 144 182 206 204 168 220 230 303 301 313 271 64 52 89 168 168 170 152 154 145
286 212 123 243 209 234 234 241 354 258 225 267 280 268 246 188 201 201 201 253 188 173 190 216 243 166 195 99 338 277 282 209 232 190 240 313 312 105 84 164 163 162 157 153 152
318 39 157 267 232 202 178 242 253 264 242 245 261 247 203 209 203 211 213 98 173 189 199 173 230 193 178 177 185 230 205 253 288 308 259 297 60 82 112 156 159 157 159 155 157
277 201 155 224 304 299 245 234 245 194 262 263 273 256 202 203 216 192 209 158 176 210 39 233 227 235 209 210 165 190 205 218 250 273 134 268 333 115 145 171 167 162 163 162 166
316 65 4 188 187 277 265 325 271 249 212 236 233 245 216 195 184 201 185 145 172 141 203 231 231 223 249 292 262 271 222 211 236 269 279 343 313 335 64 183 180 171 168 167 170
329 331 298 293 280 252 156 160 304 325 263 191 245 4 252 252 214 178 181 185 173 173 197 213 221 198 216 216 237 238 235 229 226 245 259 273 281 63 79 173 175 180 177 177 176
49 197 282 133 244 248 83 8 343 337 221 253 309 290 243 98 322 3 103 118 144 166 184 187 195 205 225 198 225 239 232 230 217 229 251 269 39 122 161 197 191 183 184 186 183